Powrót do katalogu

OPS 1127

DMSP 4B F3

AktywnyPogodaSSO
NORAD 4047·PAYLOAD·🇺🇸 United States

Wystrzelony Jul 23, 1969 z Vandenberg Space Force Base

Loading…

Następne Przeloty (najbliższe 24 godziny)

TLE

ŚwieżeSource: Space-Track

Epoka: Sep 14, 2026, 12:23 UTC

1 04047U 69062A   26257.51603446  .00000044  00000-0  33244-4 0  9997
2 04047  98.4123 109.8787 0043840 352.6129   7.4403 14.29534192974098

Śledź OPS 1127 w czasie rzeczywistym z AllMySat

Download on the App Store